Location: Castle
(40.7167°S, 175.9500°E)
Time: 02:56:01
(UTC+00:00)

JB-3 - Pass Details

Date: 04 August 2024
Orbit: 506 x 559 km, 97.2° (Epoch: 07 September)

Event Time Altitude Azimuth Distance (km) Brightness Sun altitude
Rises 17:50:00 0° 169° (S) 2,785 8.0 -17.0°
Reaches altitude 10° 17:52:11 10° 169° (S) 1,874 7.1 -16.6°
Maximum altitude 17:56:15 87° 255° (WSW) 565 4.3 -15.8°
Drops below altitude 10° 18:00:12 10° 346° (NNW) 1,815 6.9 -15.1°
Sets 18:02:16 0° 346° (NNW) 2,688 7.8 -14.7°
